Retour au catalogue

FENGYUN 1C DEB

LostSSO
NORAD 35095·DEBRIS·🇨🇳 China

Lancé May 10, 1999 depuis Taiyuan Satellite Launch Center

Loading…

Prochains Passages (prochaines 24 heures)

TLE

PériméSource: Space-Track

Époque: Dec 5, 2023, 03:20 UTC

1 35095U 99025DJX 23339.13910508  .00022691  00000-0  30947-2 0  9999
2 35095  98.4952 101.2138 0162215 268.4577  89.8042 14.69902385811113

Suivez FENGYUN 1C DEB en temps réel avec AllMySat

Download on the App Store